| time (UTC) | temp F | wind direction | speed knots | gust knots | rain 1hr in | rain 24hr in | rain mn in | humidity % | barometer mb |
| 20260504050012 | 71 | 283 | 0.0 | 0.0 | 0.00 | 0.00 | 0.00 | 40 | 1008.1 |
| 20260504044526 | 73 | 283 | 0.0 | 0.0 | 0.00 | 0.00 | 0.00 | 36 | 1007.9 |
| 20260504043030 | 73 | 321 | 0.0 | 0.9 | 0.00 | 0.00 | 0.00 | 35 | 1007.6 |
| 20260504041525 | 74 | 264 | 0.0 | 1.7 | 0.00 | 0.00 | 0.00 | 34 | 1007.5 |
| 20260504040025 | 75 | 219 | 0.0 | 0.9 | 0.00 | 0.00 | 0.00 | 34 | 1007.2 |
| 20260504034522 | 77 | 291 | 0.0 | 0.9 | 0.00 | 0.00 | 0.00 | 32 | 1007.1 |
| 20260504033021 | 78 | 293 | 0.0 | 1.7 | 0.00 | 0.00 | 0.00 | 32 | 1007.0 |
| 20260504031517 | 80 | 292 | 0.0 | 1.7 | 0.00 | 0.00 | 0.00 | 31 | 1007.0 |
| 20260504030029 | 82 | 285 | 0.0 | 2.6 | 0.00 | 0.00 | 0.00 | 30 | 1007.0 |
| 20260504024530 | 85 | 229 | 0.0 | 0.9 | 0.00 | 0.00 | 0.00 | 24 | 1006.7 |
| 20260504023027 | 86 | 224 | 0.0 | 0.0 | 0.00 | 0.00 | 0.00 | 22 | 1006.7 |
| 20260504021528 | 88 | 297 | 0.0 | 0.9 | 0.00 | 0.00 | 0.00 | 19 | 1006.7 |
| 20260504020002 | 88 | 227 | 0.0 | 3.5 | 0.00 | 0.00 | 0.00 | 19 | 1006.7 |
| 20260504014503 | 88 | 289 | 0.0 | 2.6 | 0.00 | 0.00 | 0.00 | 20 | 1006.7 |
| 20260504013007 | 89 | 41 | 0.0 | 3.5 | 0.00 | 0.00 | 0.00 | 21 | 1006.8 |
| 20260504011503 | 90 | 302 | 0.0 | 2.6 | 0.00 | 0.00 | 0.00 | 20 | 1006.9 |
| 20260504010003 | 92 | 287 | 0.0 | 0.9 | 0.00 | 0.00 | 0.00 | 18 | 1007.1 |
| 20260504004506 | 91 | 283 | 0.9 | 5.2 | 0.00 | 0.00 | 0.00 | 18 | 1007.2 |
| 20260504003004 | 91 | 287 | 0.0 | 3.5 | 0.00 | 0.00 | 0.00 | 18 | 1007.3 |
| 20260504001503 | 91 | 290 | 0.0 | 4.3 | 0.00 | 0.00 | 0.00 | 19 | 1007.4 |
| 20260504000005 | 91 | 302 | 0.9 | 5.2 | 0.00 | 0.00 | 0.00 | 19 | 1007.3 |
| 20260503234503 | 91 | 26 | 0.0 | 2.6 | 0.00 | 0.00 | 0.00 | 21 | 1007.3 |
| 20260503233002 | 91 | 330 | 0.0 | 1.7 | 0.00 | 0.00 | 0.00 | 19 | 1007.5 |
| 20260503231504 | 91 | 310 | 0.0 | 1.7 | 0.00 | 0.00 | 0.00 | 18 | 1007.7 |
| 20260503230004 | 90 | 206 | 0.0 | 2.6 | 0.00 | 0.00 | 0.00 | 22 | 1008.0 |
| 20260503224504 | 91 | 80 | 0.0 | 2.6 | 0.00 | 0.00 | 0.00 | 21 | 1008.3 |
| 20260503223005 | 90 | 311 | 0.0 | 1.7 | 0.00 | 0.00 | 0.00 | 20 | 1008.4 |
| 20260503221506 | 90 | 302 | 0.0 | 0.9 | 0.00 | 0.00 | 0.00 | 24 | 1008.6 |
| 20260503220006 | 89 | 293 | 0.0 | 1.7 | 0.00 | 0.00 | 0.00 | 25 | 1008.9 |
| 20260503214518 | 88 | 59 | 0.0 | 1.7 | 0.00 | 0.00 | 0.00 | 27 | 1009.1 |
| 20260503213004 | 87 | 315 | 0.0 | 4.3 | 0.00 | 0.00 | 0.00 | 27 | 1009.3 |
| 20260503211509 | 87 | 297 | 0.0 | 1.7 | 0.00 | 0.00 | 0.00 | 29 | 1009.6 |
| 20260503210024 | 85 | 172 | 0.0 | 2.6 | 0.00 | 0.00 | 0.00 | 32 | 1009.6 |
| 20260503204510 | 85 | 66 | 0.0 | 0.9 | 0.00 | 0.00 | 0.00 | 32 | 1009.8 |
| 20260503203014 | 83 | 297 | 0.0 | 4.3 | 0.00 | 0.00 | 0.00 | 33 | 1009.9 |
| 20260503201508 | 84 | 51 | 0.0 | 0.9 | 0.00 | 0.00 | 0.00 | 34 | 1010.0 |
| 20260503200007 | 82 | 340 | 0.0 | 0.9 | 0.00 | 0.00 | 0.00 | 37 | 1010.2 |
| 20260503194512 | 80 | 41 | 0.0 | 1.7 | 0.00 | 0.00 | 0.00 | 38 | 1010.5 |
| 20260503193014 | 78 | 291 | 0.0 | 1.7 | 0.00 | 0.00 | 0.00 | 42 | 1010.9 |
| 20260503191510 | 78 | 307 | 0.0 | 1.7 | 0.00 | 0.00 | 0.00 | 42 | 1011.0 |
| 20260503190012 | 78 | 314 | 0.0 | 0.9 | 0.00 | 0.00 | 0.00 | 41 | 1011.2 |
| 20260503184520 | 77 | 141 | 0.0 | 0.9 | 0.00 | 0.00 | 0.00 | 44 | 1011.3 |
| 20260503183009 | 76 | 61 | 0.0 | 0.9 | 0.00 | 0.00 | 0.00 | 45 | 1011.5 |
| 20260503181514 | 75 | 92 | 0.0 | 0.9 | 0.00 | 0.00 | 0.00 | 48 | 1011.5 |
| 20260503180014 | 73 | 147 | 0.0 | 0.9 | 0.00 | 0.00 | 0.00 | 53 | 1011.7 |
| 20260503174517 | 71 | 70 | 0.0 | 1.7 | 0.00 | 0.00 | 0.00 | 56 | 1011.9 |
| 20260503173016 | 69 | 287 | 0.0 | 1.7 | 0.00 | 0.00 | 0.00 | 60 | 1011.9 |
| 20260503171516 | 68 | 82 | 0.0 | 0.0 | 0.00 | 0.00 | 0.00 | 63 | 1011.9 |
| 20260503081525 | 53 | 335 | 0.0 | 0.0 | 0.00 | 0.00 | 0.00 | 70 | 1012.9 |